Simultaneous Nadir Overpasses (SNOs) Predictions

Prediction of SNOs between NOAA-21 and PACE Satellite Orbit:

Table of predicted SNOs for the next 14.0 days since TLE Epoch: 11/24/2024
Index Date (NOAA-21) Time (NOAA-21) Lat,Lon (NOAA-21) SZA (NOAA-21 ) Date (PACE) Time (PACE) Lat,Lon (PACE) SZA (PACE ) Distance(km) Time Diff (sec)
1 11/25/2024 07:28:58 80.23, 27.00 102.97 11/25/2024 07:30:10 80.24, 26.90 102.95 1.90 72
2 11/25/2024 08:19:38 -80.09,-164.14 77.30 11/25/2024 08:19:14 -80.09,-164.13 77.29 0.28 24
3 11/27/2024 11:55:19 80.12, -38.31 103.17 11/27/2024 11:55:12 80.11, -38.27 103.16 1.09 7
4 11/29/2024 15:30:59 -80.11, 87.85 76.47 11/29/2024 15:31:08 -80.11, 87.76 76.46 1.92 9
5 12/01/2024 19:06:39 80.12,-146.18 103.91 12/01/2024 19:07:04 80.12,-146.33 103.91 2.96 25
6 12/01/2
